Theta_e
330 339 351 353 352 353 353 352 353 352 351 349 349 348 348 349 349 349 351 351 351 350 350 349 346 343 342 341 339 339 339 340 342 348 352 350 350 351 349 349 349 347 352
332 340 349 352 353 354 355 355 353 351 350 348 348 347 346 345 346 346 347 350 351 350 347 345 344 343 339 337 336 336 335 335 335 336 342 348 348 346 346 347 348 346 351
336 342 347 351 353 354 354 354 352 351 348 348 347 347 347 346 346 345 348 350 350 347 345 343 343 340 337 334 332 331 331 330 330 333 335 337 341 344 344 345 347 346 348
338 341 345 348 352 353 353 352 352 352 351 349 348 347 348 348 348 347 347 349 349 348 346 342 340 336 333 330 328 326 324 325 328 331 329 333 343 345 344 344 344 344 344
337 341 343 347 352 353 353 352 352 352 351 349 348 349 350 349 348 348 348 348 346 345 341 340 336 334 329 326 323 321 321 324 325 325 333 336 339 345 345 343 343 343 344
336 340 343 348 352 353 352 352 351 351 350 349 350 350 349 347 345 345 346 345 343 342 339 337 334 329 325 322 319 319 322 323 322 326 328 334 336 345 345 343 342 342 343
333 336 342 347 350 351 352 352 351 351 350 351 351 350 349 347 344 339 337 342 343 339 335 333 330 326 322 319 316 318 319 320 315 321 321 324 332 339 340 342 343 342 341
329 334 340 341 344 347 349 350 350 350 350 350 351 350 350 348 344 337 336 337 340 338 333 332 328 324 320 316 314 316 319 317 317 316 316 319 334 335 334 333 337 337 338
325 335 337 340 342 340 343 344 346 348 348 348 349 349 347 346 341 338 336 336 335 335 333 331 325 321 318 314 312 314 317 316 310 312 316 316 330 330 330 330 331 332 333
321 332 335 336 338 341 342 337 339 342 343 344 344 342 339 339 337 336 333 335 335 334 332 329 324 321 317 312 309 311 312 311 305 307 311 315 327 326 325 325 327 328 329
319 324 330 333 336 337 336 336 333 336 338 338 338 335 332 331 331 328 328 332 335 334 331 328 324 321 316 309 307 309 304 297 302 302 307 317 318 321 321 322 323 324 326
312 319 324 330 333 334 339 336 335 339 338 338 337 334 330 328 325 325 323 328 331 330 331 327 323 320 309 296 295 302 294 294 298 298 304 315 316 317 320 320 321 323 324
308 313 322 326 330 332 334 335 333 338 337 332 330 329 327 328 325 323 320 321 320 321 319 320 316 306 298 296 294 294 293 293 296 297 305 313 316 317 318 319 322 324 325
299 300 309 322 325 329 331 331 332 335 335 335 331 327 328 326 324 322 320 318 315 313 311 309 306 303 298 296 295 293 293 293 294 296 302 313 316 317 319 322 323 322 323
297 298 299 309 323 326 327 326 329 333 333 332 327 326 327 327 324 321 318 316 313 309 308 305 303 300 295 294 294 293 292 292 293 297 298 311 316 318 320 321 323 324 324
297 297 299 300 313 323 325 323 326 327 327 326 325 326 325 328 324 318 316 315 310 309 306 304 302 296 294 293 293 293 292 292 293 297 298 304 316 318 319 321 322 324 325
295 296 298 301 304 318 321 321 321 322 322 322 323 323 323 324 323 318 315 314 314 308 305 302 299 294 292 292 291 292 292 292 293 295 298 301 305 313 317 317 320 324 324
293 294 297 301 305 313 317 319 320 320 319 320 321 324 323 323 320 316 315 314 313 310 304 300 296 293 291 290 289 290 290 292 292 293 295 300 301 303 309 314 317 320 322
292 293 295 298 300 308 313 314 316 317 317 317 322 323 323 321 318 316 313 313 311 309 304 299 293 293 291 289 289 288 289 290 291 293 292 295 294 298 299 307 307 309 314
292 293 293 296 297 302 307 309 310 310 314 317 317 319 320 318 315 315 313 310 308 306 300 295 294 291 290 290 291 289 288 289 289 289 290 292 291 293 296 297 296 298 308
291 292 292 293 293 297 300 301 302 301 302 308 311 311 314 316 315 313 311 308 305 303 301 298 292 291 289 288 287 287 287 288 288 288 289 289 289 290 291 293 293 295 299
290 290 291 292 292 293 295 297 299 298 298 301 302 301 301 308 310 310 307 304 303 300 297 295 294 289 289 288 287 284 284 286 287 288 288 288 288 288 289 290 290 292 296
288 289 291 291 292 292 292 293 293 293 292 293 293 293 294 299 303 305 305 302 300 299 298 296 294 293 290 288 288 287 282 282 283 285 286 287 287 286 287 288 290 290 293
286 288 289 290 290 291 291 290 289 288 288 288 289 290 291 292 292 293 296 300 299 297 296 295 295 293 291 290 287 289 287 285 283 282 284 285 286 286 286 286 287 289 291
286 285 286 288 289 289 289 290 289 288 288 289 289 288 289 290 290 290 290 291 292 296 296 294 294 292 292 291 289 286 285 285 285 283 282 282 284 285 286 286 286 287 289
285 284 285 285 286 286 286 286 286 286 285 285 285 285 286 287 287 287 288 288 289 289 290 293 293 292 292 291 291 289 288 285 284 284 282 282 281 283 284 285 285 287 287
Wind_Speed
5 11 17 16 16 15 14 13 12 11 11 12 10 9 8 8 8 8 8 10 10 11 12 12 11 10 11 10 9 8 8 7 8 9 9 10 12 12 11 11 9 7 11
9 12 18 18 16 15 15 13 11 10 11 11 10 9 8 7 6 6 5 4 11 12 11 9 8 9 10 9 8 7 7 7 8 8 7 7 9 10 11 10 8 8 12
10 12 13 17 17 15 13 13 13 12 11 10 10 9 8 7 5 5 4 6 10 10 9 8 8 8 9 8 7 6 6 7 7 8 2 2 4 9 10 9 9 9 10
10 12 12 13 16 15 14 14 13 12 12 12 11 9 9 8 7 6 6 7 8 10 9 5 6 7 7 6 6 5 5 5 7 7 4 2 2 8 8 9 9 9 9
8 11 12 15 15 14 13 14 14 13 12 12 11 12 11 10 10 7 8 9 7 11 5 6 6 6 5 5 5 4 4 5 7 6 4 5 3 4 8 9 8 8 8
7 9 11 18 17 16 15 14 13 13 13 13 12 11 12 11 10 9 7 8 7 10 5 5 5 4 4 5 6 5 6 8 7 6 5 6 4 8 8 7 8 7 6
7 7 9 16 17 17 16 16 15 14 13 12 13 12 13 13 13 9 3 5 7 8 3 3 3 4 4 5 5 6 7 8 5 5 5 5 4 6 6 8 7 9 7
7 6 7 12 12 14 15 15 15 15 14 13 12 14 13 14 12 11 7 6 6 6 4 4 3 4 4 4 5 6 8 9 6 6 5 5 6 7 4 4 6 5 6
7 7 6 8 11 13 13 13 13 14 14 13 12 12 12 13 13 13 10 7 6 5 6 6 4 4 4 4 5 6 9 9 6 4 3 3 5 5 4 2 1 0 1
5 6 8 7 7 8 9 12 12 12 12 11 10 8 10 11 12 14 12 8 9 9 8 7 6 6 4 3 4 6 8 8 5 4 3 3 5 4 2 1 1 1 1
3 7 6 7 7 6 5 7 10 13 14 14 12 10 9 5 7 9 8 9 11 10 10 9 7 6 4 2 3 4 6 2 4 2 2 3 2 2 2 1 1 1 2
7 7 7 8 9 8 7 6 8 7 5 5 6 6 5 5 5 6 7 9 8 9 10 11 9 7 4 1 1 3 2 3 3 1 1 2 1 2 3 3 2 3 3
6 5 7 10 9 10 8 6 4 5 3 2 4 5 5 5 4 3 2 3 3 6 3 5 4 3 3 2 0 1 2 2 2 1 1 1 3 2 4 5 5 5 5
8 7 8 7 6 9 5 6 6 6 5 5 4 5 5 4 4 4 3 4 3 3 4 4 3 4 4 4 4 4 3 3 2 1 2 2 3 4 6 6 6 6 7
9 10 9 6 7 6 6 4 5 7 8 8 5 6 5 4 5 4 4 4 3 3 4 4 4 3 3 3 3 5 4 4 5 3 2 3 3 5 7 7 7 7 7
10 10 11 9 6 5 6 6 5 4 5 5 4 6 6 7 6 5 4 5 4 4 4 4 4 4 4 3 4 3 3 3 3 3 2 1 1 4 6 7 8 9 8
10 11 11 11 10 6 6 4 4 4 4 4 4 6 6 5 7 7 5 5 5 4 5 3 2 1 1 2 3 2 2 2 2 3 3 2 1 4 4 1 6 8 8
10 13 12 11 10 6 4 4 3 3 2 2 3 4 5 5 6 5 6 6 6 5 5 4 3 2 2 3 2 3 2 2 3 3 3 3 3 1 3 3 4 8 13
8 10 12 13 13 10 8 6 6 6 3 2 1 1 3 4 5 4 4 4 6 5 4 5 2 4 3 2 3 2 3 3 4 2 4 4 4 3 2 3 2 5 7
9 10 11 10 13 8 5 7 7 7 7 6 6 5 4 1 3 3 2 3 4 4 3 3 3 2 3 4 2 2 3 4 4 4 5 3 4 4 3 4 3 3 5
13 14 14 14 13 9 5 4 4 4 4 7 8 11 8 5 4 1 0 2 3 3 6 7 3 4 2 3 3 2 3 5 6 5 4 5 5 5 4 4 3 3 4
12 12 14 14 14 11 6 3 4 2 4 5 7 10 13 10 7 4 3 3 1 2 2 3 3 2 2 4 4 2 3 4 5 6 5 5 7 4 5 6 6 6 5
14 14 13 14 14 12 11 6 4 4 4 5 8 7 10 12 13 11 7 4 2 1 2 3 3 5 4 3 4 5 1 5 3 1 5 4 5 4 5 5 6 6 6
10 10 12 13 14 13 13 10 12 7 5 4 4 5 7 11 12 12 12 10 6 2 3 4 3 3 1 4 2 6 2 3 3 5 2 4 4 6 6 5 6 6 6
8 8 8 11 13 12 13 11 8 9 5 5 6 10 10 9 11 12 10 9 8 6 5 5 4 4 4 3 4 3 3 3 1 3 5 4 2 5 6 7 6 6 6
7 8 8 11 11 11 11 12 12 11 10 9 10 9 7 7 9 12 11 8 7 7 7 6 5 5 5 5 4 4 4 4 4 4 5 6 5 5 5 5 7 7 6
Wind_Direction
208 173 174 176 174 167 167 161 153 148 148 142 137 131 126 117 115 111 116 131 131 122 110 95 94 87 79 71 67 64 64 56 38 42 87 84 80 83 78 67 54 56 73
151 178 173 175 175 171 164 162 156 153 151 149 146 146 140 135 129 120 119 144 130 117 107 100 101 99 91 78 65 53 52 48 37 28 33 67 81 81 78 72 62 58 67
150 167 176 175 173 172 164 157 159 158 159 158 155 156 154 149 144 142 122 133 124 116 112 112 110 102 100 94 77 53 41 41 30 10 348 63 92 95 89 80 76 71 66
155 165 174 180 177 175 168 166 164 167 168 166 168 171 168 155 139 149 154 150 142 123 99 110 108 98 87 79 71 54 35 40 32 44 69 54 155 115 107 91 87 80 71
156 168 176 173 178 178 178 175 172 174 175 175 177 180 170 156 127 118 135 131 127 104 125 119 110 103 86 72 64 45 43 38 59 65 64 88 83 101 115 98 93 87 88
159 167 175 177 177 178 179 182 183 181 181 185 186 177 162 154 140 127 130 139 127 115 125 129 115 98 81 71 55 58 48 58 61 82 60 45 63 81 125 118 110 98 92
170 170 173 180 180 180 180 183 182 183 189 196 188 183 184 173 164 143 188 174 151 124 153 144 123 103 79 68 61 60 43 67 71 60 57 40 47 70 99 81 100 108 93
169 177 173 181 180 182 184 187 185 185 188 198 198 193 196 181 173 147 193 201 188 139 190 172 149 117 96 68 56 51 56 75 82 69 49 34 49 64 68 34 9 55 59
169 169 181 186 187 183 185 187 187 190 194 198 198 203 204 187 160 159 172 204 210 191 201 170 162 142 129 107 88 70 68 80 88 74 50 37 37 80 75 104 90 336 109
191 182 181 183 192 196 193 191 191 192 195 194 205 207 199 176 167 160 164 199 192 200 202 175 173 172 155 118 101 63 76 85 91 84 65 12 63 99 106 148 146 176 220
229 204 189 186 190 193 194 200 201 198 198 195 200 202 187 169 166 157 165 189 189 187 195 183 185 176 144 136 96 63 75 77 87 69 66 40 63 142 151 183 159 199 213
230 225 199 191 192 184 197 201 211 213 217 200 182 182 161 167 162 163 167 184 187 179 184 185 186 154 120 105 4 51 74 94 90 78 31 0 253 203 188 207 204 194 189
305 303 227 201 194 188 195 187 178 202 213 211 191 167 157 155 149 147 152 181 173 175 165 172 160 134 168 169 191 117 113 112 121 84 346 327 302 243 219 217 201 182 182
15 345 298 256 213 199 184 185 191 193 194 213 199 177 164 156 167 165 171 177 180 169 165 154 159 173 201 211 185 167 156 145 150 141 290 261 289 242 226 205 203 211 213
5 341 337 289 214 209 187 179 178 190 198 202 169 173 166 160 173 166 177 170 176 162 167 168 172 192 229 219 197 178 176 172 173 184 204 233 288 270 223 208 207 206 202
351 348 335 334 272 198 202 176 185 177 182 174 172 181 182 171 174 173 171 179 171 175 173 175 181 192 213 206 214 209 199 188 176 177 194 283 340 325 226 214 218 214 197
345 337 355 344 331 199 189 188 161 173 156 169 186 182 183 176 180 171 166 176 179 173 162 152 157 148 256 300 248 230 220 221 204 192 196 221 312 18 38 339 249 222 209
356 358 349 357 4 16 98 104 90 100 129 164 200 208 194 190 180 162 169 182 179 164 160 158 159 174 223 221 245 258 265 260 242 223 219 211 211 246 6 16 344 245 227
0 2 8 7 12 19 41 51 57 70 56 45 275 197 188 178 182 171 176 175 152 160 175 168 155 160 185 217 247 272 280 270 257 250 232 226 228 221 226 274 318 337 320
16 15 15 19 18 12 32 52 51 50 43 43 34 23 17 59 151 174 168 145 137 162 160 169 162 162 171 172 184 235 285 269 266 253 238 231 234 235 236 256 282 278 274
26 27 21 20 8 17 18 32 36 47 12 46 43 36 32 24 22 359 248 132 139 184 200 190 129 179 199 141 97 327 281 246 249 240 234 234 232 223 217 228 250 276 283
33 26 28 28 19 16 14 7 52 74 45 47 38 34 19 17 24 39 26 338 176 143 175 184 171 159 206 179 143 74 305 306 254 222 217 218 225 218 222 219 221 236 251
38 23 27 27 28 23 12 10 14 30 29 28 30 35 28 21 18 17 16 37 41 316 233 211 215 203 210 226 222 157 108 242 332 348 245 230 226 224 230 228 224 223 227
30 31 36 34 32 28 23 36 45 51 52 7 19 24 28 31 36 27 16 11 6 348 263 238 226 236 145 222 263 248 220 160 217 320 293 260 228 236 226 229 228 228 216
45 31 31 42 40 30 36 39 48 52 42 29 27 33 29 27 29 25 22 17 14 5 345 318 292 230 210 214 216 207 206 205 170 170 282 306 310 240 231 221 216 226 218
34 39 34 45 42 38 46 44 48 46 45 44 37 33 22 19 20 22 18 14 8 10 5 349 328 296 269 257 262 242 214 198 203 197 227 251 236 266 233 215 218 224 220